Racecast

New Balance Nationals Outdoor

2miles · Girls · Freshman · Outdoor · 2025-06-19 · PA

Venue difficulty: -0.045

View full meet →

View venue →

Place Athlete Grade School Result Rating Points
1 Colby McCollum 9 Cuthbertson (NC) 10:38.6 137.3 10
2 Rachel Smith 9 Okemos (MI) 10:45.9 135.8 8
3 Petra Gruendel 9 James Robinson (VA) 10:53.99 134.1 6
4 Sienna Klemmer 9 Purple Track Club (MI) 10:57.33 133.4 5
5 Reese Latta 9 F5 Distance (TX) 10:59.63 132.9 4
6 Kara Glenn 9 Elgin Sharks Track (IL) 11:00.89 132.7 3
7 Lauren Parrett 9 Glastonbury (CT) 11:05.6 131.7 2
8 Ainsley Kelm 9 Portage-MI (MI) 11:10.74 130.7 1
9 Leah Navarro 9 Dallastown Area (PA) 11:12.27 130.4
10 Emilia Garces 9 Bolt Track Club (MI) 11:13.95 130.1
11 Kaitlyn Van Zandt 9 Watterson (OH) 11:18.43 129.2
12 Erin Healy 9 Cherokee (NJ) 11:19.02 129.1
13 Tara Iyer 9 Guilderland (NY) 11:19.42 129.1
14 Anneka Hill 9 Cardinal Gibbons (NC) 11:19.49 129.1
15 Luca Brennan 9 Georgetown Visitation Prep (MD) 11:20.73 128.8
16 Victoria Tarara 9 Barrington (IL) 11:20.91 128.8
17 Avery Whittaker 9 Ithaca (NY) 11:21.25 128.7
18 Savannah Staton 9 Saline (MI) 11:23.04 128.4
19 Camila Forero Rodriguez 9 Mississauga Track and Field Club (MA) 11:23.71 128.2
20 Diya Shrestha 9 Westford Academy (MA) 11:24.21 128.2
21 Kayla Shellenbarger 9 Martian Elite (MI) 11:24.31 128.1
22 Natalie Knowles 9 Ridgewood (NJ) 11:24.47 128.1
23 Natalie Nixon 9 Ottawa Hills (OH) 11:24.47 128.1
24 Maia Zalmover 9 Ridge (NJ) 11:25.24 128.0
25 Oakley Osterhart 9 Coopersville (MI) 11:26.5 127.7
26 Annabelle Averett 9 Swampscott (MA) 11:26.69 127.7
27 Joelle Mateo 9 Cherry Hill West (NJ) 11:27.61 127.5
28 Sydney Dias 9 Walpole (MA) 11:28.04 127.5
29 Cora Wasiolek 9 Mercy (CT) (CT) 11:28.28 127.4
30 Lana Bruggeman 9 Lake Central (IN) 11:28.66 127.3
31 Ella Alberici 9 Cambridge (GA) 11:32.51 126.6
32 Lyla Eltz 9 HANOVER-PA (PA) 11:32.84 126.6
33 Sophie Passalacqua 9 Greenwich (CT) 11:33.8 126.4
34 Reagan Owen 9 Kinetic Running (NY) 11:34.96 126.2
35 Violet Page 9 Mountain Lakes (NJ) 11:36.8 125.8
36 Caroline deButts 9 Atlanta-GA (GA) 11:36.96 125.8
37 Gracie Carlisle 9 Portage-MI (MI) 11:37.5 125.7
38 Natasha Kenny 9 South Brunswick (NJ) 11:38.11 125.6
39 Katherine (Kate) Brice 9 Jacksonville-FL (FL) 11:39.67 125.3
40 Saffa Ellis 9 Prospect Park Youth Running (NY) 11:42.39 124.8
41 Isabella Sisto 9 Hackettstown (NJ) 11:42.98 124.7
42 Logan Romanini 9 Hudson (OH) 11:43.72 124.6
43 Natalie Cordes 9 Fort Wayne Concordia Lutheran (IN) 11:45.69 124.3
44 Ella Williams 9 Lane 4 Track Club (GA) 11:45.79 124.2
45 Kate Miner 9 Urbana (MD) 11:45.91 124.2
46 Kelsie Humbert 9 Briar Woods (VA) 11:46 124.2
47 Sonia Souto 9 Weymouth (MA) 11:47.19 124.0
48 Hayley Mancini 9 Valley Blaze (VA) 11:48.08 123.8
49 Beatrice Duffy 9 Without Limits Triangle (NC) 11:48.23 123.8
50 Teagan Davis 9 Guilderland (NY) 11:49.26 123.6
51 Callie Sinke 9 Up North Elite (MI) 11:49.81 123.5
52 Kaleigh Podkowka 9 Patriot (CA) 11:50.46 123.4
53 Ella Ferrell 9 Wakefield Memorial (MA) 11:50.77 123.4
54 Olivia Kavanagh 9 Oyster River (NH) 11:51.07 123.3
55 Lexi Fitzsimmons 9 Severna Park (MD) 11:51.28 123.3
56 Gabriella Grifone 9 Hershey Blaze (PA) 11:51.76 123.2
57 Morgan Kuzma 9 Paul VI (VA) 11:52.3 123.1
58 Mira Moschillo 8 Hickory (VA) 11:54.4 133.4
59 Rosalia Nestor 9 Northwestern Lehigh (PA) 11:55.97 122.5
60 Brooke Derringer 9 Lancaster (OH) 11:56.73 122.3
61 Kaitlin Kipp 9 Kennett (PA) 11:57.41 122.2
62 Sophie Nash 9 North Hunterdon (NJ) 11:57.61 122.2
63 Ella Braz 9 Peabody Veterans Memorial (MA) 12:00.31 121.7
64 Angelina Ruggeri 9 Ridgefield (CT) 12:02.03 121.5
65 Naya Abu Yasin 9 Northville (MI) 12:02.99 121.3
66 Avery Scott 9 Kalamazoo-MI (MI) 12:08.99 120.3
67 Hanna Antonelli 9 Beachside (FL) 12:11.77 119.8
68 Katherine Murray 9 Norwell-MA (MA) 12:11.81 119.8
69 Mazie Quinn 9 Sir Winston Churchill (St Catharines) (NY) 12:14.77 119.3
70 Eva Gerard 9 Ashburn-VA (VA) 12:21.14 118.3
71 Abigail Erickson 9 Sachem East (NY) 12:22.3 118.1
72 Leah Esber 9 Bluff Runners (FL) 12:24.7 117.8
73 Caroline Lanz 9 Winchester (MA) 12:25.33 117.7
74 Letty Banwart 9 Zionsville (IN) 12:26.56 117.5
75 Kylie Jacobson 9 Hereford (MD) 12:38.65 115.6
76 Lani Blevins 9 Carlynton (PA) 12:38.92 115.5
77 Brooklyn Busch 9 Washington (WA) 12:41.34 115.2
78 Julia D'Emic 9 Spanish River (FL) 13:01.68 112.2
79 Maris Frank 9 Cedarburg (WI) 13:02.5 112.1
80 Riley Zent 9 Fort Wayne Concordia Lutheran (IN) 13:13 110.6
Something wrong on this page? Report it →